AI4ZL Weather Reports


time (UTC)temp
F
wind
direction
speed
knots
gust
knots
rain 1hr
in
rain 24hr
in
rain mn
in
humidity
%
barometer
mb
20260505082031 64 202 0.9 2.6 0.00 0.00 0.00 71 1009.4
20260505081020 64 210 1.7 2.6 0.00 0.00 0.00 69 1009.6
20260505080025 64 195 1.7 2.6 0.00 0.00 0.00 70 1009.5
20260505075030 64 199 1.7 2.6 0.00 0.00 0.00 69 1009.6
20260505074038 64 207 0.9 3.5 0.00 0.00 0.00 69 1009.4
20260505073022 65 199 0.9 3.5 0.00 0.00 0.00 68 1009.1
20260505072109 65 191 1.7 3.5 0.00 0.00 0.00 68 1008.9
20260505071033 65 192 0.9 2.6 0.00 0.00 0.00 67 1008.9
20260505070021 65 211 1.7 5.2 0.00 0.00 0.00 66 1009.2
20260505065025 66 208 2.6 7.8 0.00 0.00 0.00 65 1009.3
20260505064030 66 198 2.6 6.1 0.00 0.00 0.00 66 1009.4
20260505063019 66 216 1.7 3.5 0.00 0.00 0.00 65 1009.3
20260505062023 66 209 2.6 6.1 0.00 0.00 0.00 64 1009.3
20260505061028 66 177 2.6 6.1 0.00 0.00 0.00 64 1008.9
20260505060037 66 209 2.6 6.1 0.00 0.00 0.00 64 1009.1
20260505055021 66 196 2.6 7.0 0.00 0.00 0.00 63 1009.4
20260505054027 67 201 2.6 5.2 0.00 0.00 0.00 63 1009.7
20260505053052 67 187 1.7 6.1 0.00 0.00 0.00 63 1009.7
20260505052020 67 202 2.6 5.2 0.00 0.00 0.00 63 1009.7
20260505051024 67 185 2.6 5.2 0.00 0.00 0.00 63 1009.9
20260505041020 70 203 5.2 7.8 0.00 0.00 0.00 58 1009.6
20260505040025 70 196 3.5 8.7 0.00 0.00 0.00 58 1009.9
20260505035030 70 201 3.5 6.1 0.00 0.00 0.00 57 1009.9
20260505034059 70 205 1.7 5.2 0.00 0.00 0.00 58 1009.9
20260505033023 69 193 3.5 6.1 0.00 0.00 0.00 57 1010.1
20260505032028 69 203 1.7 3.5 0.00 0.00 0.00 58 1010.0
20260505031053 70 215 1.7 3.5 0.00 0.00 0.00 57 1009.8
20260505030021 70 219 1.7 3.5 0.00 0.00 0.00 57 1009.8
20260505025026 70 209 1.7 3.5 0.00 0.00 0.00 57 1009.6
20260505024031 71 224 1.7 3.5 0.00 0.00 0.00 55 1009.6
20260505023039 71 216 1.7 5.2 0.00 0.00 0.00 55 1009.5
20260505022023 71 234 1.7 3.5 0.00 0.00 0.00 54 1009.2
20260505021028 72 207 2.6 5.2 0.00 0.00 0.00 53 1009.2
20260505020016 72 205 2.6 6.1 0.00 0.00 0.00 53 1008.9
20260505015022 72 197 2.6 5.2 0.00 0.00 0.00 52 1008.6
20260505014027 72 198 2.6 7.0 0.00 0.00 0.00 51 1008.5
20260505013031 72 200 2.6 6.1 0.00 0.00 0.00 51 1008.7
20260505012100 73 187 2.6 6.1 0.00 0.00 0.00 50 1008.5
20260505011045 73 232 2.6 5.2 0.00 0.00 0.00 50 1008.4
20260505010049 74 198 3.5 7.0 0.00 0.00 0.00 49 1008.2
20260505005017 74 197 2.6 5.2 0.00 0.00 0.00 49 1008.0
20260505004043 75 190 2.6 3.5 0.00 0.00 0.00 48 1008.3
20260505003027 75 204 2.6 7.0 0.00 0.00 0.00 47 1008.3
20260505002033 76 201 4.3 9.6 0.00 0.00 0.00 46 1008.4
20260505001020 76 201 3.5 7.8 0.00 0.00 0.00 46 1008.5
20260505000025 77 221 4.3 8.7 0.00 0.00 0.00 45 1008.4
20260504235050 77 203 4.3 13.0 0.00 0.00 0.00 45 1008.4
20260504234018 77 201 4.3 12.2 0.00 0.00 0.00 45 1008.6
20260504233023 77 204 4.3 13.0 0.00 0.00 0.00 45 1008.8
20260504232028 77 221 6.1 16.5 0.00 0.00 0.00 45 1008.9
20260504231016 78 214 4.3 9.6 0.00 0.00 0.00 44 1009.0
20260504230021 79 212 4.3 9.6 0.00 0.00 0.00 43 1009.1
20260504225026 79 205 4.3 12.2 0.00 0.00 0.00 43 1009.0
20260504224030 80 199 3.5 7.0 0.00 0.00 0.00 43 1009.2
20260504223018 81 212 4.3 8.7 0.00 0.00 0.00 41 1009.2
20260504222024 80 239 6.1 14.8 0.00 0.00 0.00 40 1009.3
20260504221029 80 195 4.3 8.7 0.00 0.00 0.00 41 1009.3
20260504220017 80 220 3.5 7.8 0.00 0.00 0.00 42 1009.4
20260504215021 80 200 4.3 11.3 0.00 0.00 0.00 41 1009.6
20260504214027 81 241 4.3 13.0 0.00 0.00 0.00 42 1009.3
20260504213032 81 225 3.5 9.6 0.00 0.00 0.00 42 1009.4
20260504212041 81 201 3.5 9.6 0.00 0.00 0.00 42 1009.6
20260504211024 81 204 4.3 9.6 0.00 0.00 0.00 41 1009.6
20260504210029 80 211 5.2 13.9 0.00 0.00 0.00 41 1009.5
20260504205018 81 233 4.3 11.3 0.00 0.00 0.00 40 1009.4
20260504204023 80 210 6.1 13.9 0.00 0.00 0.00 41 1009.4
20260504203028 81 214 5.2 13.0 0.00 0.00 0.00 40 1009.2
20260504202033 81 215 4.3 9.6 0.00 0.00 0.00 42 1009.4
20260504201020 80 228 5.2 8.7 0.00 0.00 0.00 40 1009.4
20260504200026 80 226 6.1 13.0 0.00 0.00 0.00 42 1009.5
20260504195031 80 235 6.1 16.5 0.00 0.00 0.00 42 1009.6
20260504194018 80 204 6.1 15.6 0.00 0.00 0.00 41 1009.8
20260504193023 81 210 5.2 13.0 0.00 0.00 0.00 42 1009.8
20260504192049 80 201 5.2 12.2 0.00 0.00 0.00 43 1009.8
20260504191033 81 208 5.2 13.9 0.00 0.00 0.00 43 1010.0
20260504185026 81 242 6.1 15.6 0.00 0.00 0.00 41 1010.4
20260504184031 81 238 7.8 20.0 0.00 0.00 0.00 41 1010.5
20260504183020 80 202 5.2 9.6 0.00 0.00 0.00 43 1010.5
20260504182024 80 209 4.3 9.6 0.00 0.00 0.00 43 1010.7
20260504181029 80 231 4.3 13.0 0.00 0.00 0.00 44 1010.9
20260504180017 80 235 6.1 14.8 0.00 0.00 0.00 44 1011.0
20260504175022 79 232 6.1 12.2 0.00 0.00 0.00 46 1011.3
20260504174026 79 221 4.3 12.2 0.00 0.00 0.00 48 1011.5
20260504173053 79 229 7.8 16.5 0.00 0.00 0.00 47 1011.5
20260504172020 78 226 4.3 9.6 0.00 0.00 0.00 48 1011.6
20260504171025 78 229 6.1 13.0 0.00 0.00 0.00 49 1011.4
20260504151016 73 230 3.5 7.0 0.00 0.00 0.00 62 1012.4
20260504141029 69 195 3.5 7.0 0.00 0.00 0.00 67 1012.9